Home > Weather > Toamasina > Past weeks

Flag for Madagascar Weather for the Past 2 Weeks in Toamasina, Madagascar

Now
86 °F

Scattered clouds.


Feels Like: 95 °F
Forecast: 76 / 93 °F
Wind: 2 mph from South

Location: Tamatave

Current Time: Feb 12, 2016 at 7:30:16 PM

Latest Report: Feb 12, 2016 at 6:00 PM


Visibility: N/A

Pressure: 29.71 "Hg

Humidity: 70%

Dew point: 75 °F

Location of ToamasinaLocation

Historic Weather in Toamasina — Graph

°F

Toamasina Temperature Yesterday

Maximum temperature yesterday: 91 °F (at 9:00 AM)
Minimum temperature yesterday: 79 °F (at 12:00 AM)
Average temperature yesterday: 85 °F

High & Low Weather Summary for the Past Weeks

 TemperatureHumidityPressure
High91 °F (Feb 10, 9:00 AM)100% (Jan 28, 11:00 PM)29.95 "Hg (Jan 28, 11:00 PM)
Low70 °F (Feb 2, 5:00 AM)56% (Feb 11, 9:00 AM)29.53 "Hg (Feb 10, 3:00 PM)
Average81 °F84%29.78 "Hg
* Reported Jan 28 6:00 PM — Feb 12 6:00 PM, Toamasina, Weather by CustomWeather, © 2016

Note: Actual official high and low records may vary slightly from our data, if they occured in-between our weather recording intervals... More about our weather records

Advertising

Toamasina Weather History for the Previous 24 Hours

 ConditionsComfort  
Time TempWeatherWind HumidityBarometerVisibility
6:00 PM
Fri, Feb 12
86 °FScattered clouds.2 mph70%29.71 "HgN/A
5:00 PM88 °FPartly sunny.2 mph70%29.68 "HgN/A
4:00 PM88 °FScattered clouds.7 mph70%29.65 "HgN/A
3:00 PM90 °FScattered clouds.9 mph67%29.65 "HgN/A
2:00 PM88 °FScattered clouds.9 mph70%29.65 "HgN/A
1:00 PM88 °FScattered clouds.9 mph70%29.65 "HgN/A
12:00 PM88 °FScattered clouds.9 mph75%29.68 "HgN/A
11:00 AM88 °FPassing clouds.9 mph70%29.71 "HgN/A
10:00 AM88 °FPassing clouds.9 mph70%29.71 "HgN/A
9:00 AM88 °FScattered clouds.5 mph66%29.74 "HgN/A
8:00 AM84 °FScattered clouds.7 mph74%29.74 "HgN/A
7:00 AM82 °FScattered clouds.5 mph74%29.74 "HgN/A
6:00 AM75 °FScattered clouds.5 mph89%29.71 "HgN/A
5:00 AM77 °FPassing clouds.5 mph94%29.68 "HgN/A
4:00 AM77 °FPassing clouds.No wind94%29.68 "HgN/A
3:00 AM77 °FPassing clouds.No wind94%29.68 "HgN/A
2:00 AM79 °FPassing clouds.No wind94%29.68 "HgN/A
12:00 AM79 °FPassing clouds.No wind94%29.71 "HgN/A
11:00 PM
Thu, Feb 11
81 °FPassing clouds.No wind89%29.71 "HgN/A
10:00 PM81 °FPassing clouds.No wind89%29.71 "HgN/A
9:00 PM82 °FPassing clouds.No wind84%29.71 "HgN/A
8:00 PM82 °FPassing clouds.2 mph84%29.68 "HgN/A
7:00 PM86 °FPassing clouds.5 mph79%29.68 "HgN/A
Weather by CustomWeather, © 2016

See weather overviewHow to use our weather pages